Location: Newark
(43.6583°N, 1.6617°E)
Time: 06:35:55
(UTC+00:00)

Courier 1B - Pass Details

Date: 01 September 2019
Orbit: 962 x 1209 km, 28.3° (Epoch: 15 September)

Event Time Altitude Azimuth Distance (km) Brightness Sun altitude
Rises 13:59:31 0° 230° (SW) 4,061 11.5 45.2°
Reaches altitude 10° 14:03:10 10° 216° (SW) 3,067 11.1 44.7°
Maximum altitude 14:08:31 21° 170° (S) 2,290 10.1 44.0°
Drops below altitude 10° 14:13:42 10° 125° (SE) 2,946 10.0 43.2°
Sets 14:17:06 0° 110° (ESE) 3,857 10.4 42.8°
